This demonstration page uses our WeatherBlox Daily Observations layout. Learn more.

Left ArrowRight Arrow

40.92945, -100.16068

Hourly Observations for May 30, 2015

Temp ( °F °C ) Dew Point ( °F °C ) Humidity (%) Winds ( mph kmh ) Pressure ( in mb ) Visibility ( mi km ) Precip ( " mm )
12:15 am 00:15 Cloudy 51 10.5 47 8.1 85 85 N 13 20 30.24 1024 10 16.0934 N/A
12:35 am 00:35 Cloudy 51 10.3 46 8 86 86 N 16 26 30.24 1024 10 16.0934 N/A
12:55 am 00:55 Mostly Cloudy 50 10 46 7.6 85 85 N 15 24 30.24 1024 10 16.0934 N/A
1:15 am 01:15 Partly Cloudy 50 10 44 6.8 81 81 N 21 33 30.24 1024 10 16.0934 N/A
1:35 am 01:35 Clear 50 10 43 6 76 76 N 15 24 30.24 1024 10 16.0934 N/A
1:55 am 01:55 Clear 50 9.8 42 5.8 76 76 N 13 20 30.24 1024 10 16.0934 N/A
2:15 am 02:15 Partly Cloudy 49 9.7 42 5.7 76 76 N 13 20 30.27 1025 10 16.0934 N/A
2:35 am 02:35 Partly Cloudy 49 9.5 43 6 79 79 N 14 22 30.24 1024 10 16.0934 N/A
2:55 am 02:55 Partly Cloudy 49 9.5 43 6.1 80 80 NNW 10 17 30.27 1025 10 16.0934 N/A
3:15 am 03:15 Clear 49 9.5 43 6.2 80 80 NNW 15 24 30.24 1024 10 16.0934 N/A
3:35 am 03:35 Clear 49 9.2 43 6.2 82 82 NNW 13 20 30.24 1024 10 16.0934 N/A
3:55 am 03:55 Clear 48 8.8 43 6 83 83 NNW 12 19 30.24 1024 10 16.0934 N/A
4:15 am 04:15 Clear 46 8 42 5.7 86 86 NNW 9 15 30.27 1025 10 16.0934 N/A
4:35 am 04:35 Clear 46 7.6 43 6 90 90 NNW 12 19 30.27 1025 10 16.0934 N/A
4:55 am 04:55 Clear 45 7.1 42 5.6 90 90 NNW 10 17 30.27 1025 10 16.0934 N/A
5:15 am 05:15 Clear 44 6.7 42 5.3 91 91 NW 9 15 30.27 1025 10 16.0934 N/A
5:35 am 05:35 Clear 43 6.2 41 5 92 92 NNW 12 19 30.27 1025 10 16.0934 N/A
5:55 am 05:55 Clear 43 6 40 4.7 91 91 NW 10 17 30.27 1025 10 16.0934 N/A
6:15 am 06:15 Sunny 42 5.7 40 4.5 92 92 NNW 9 15 30.27 1025 10 16.0934 N/A
6:35 am 06:35 Sunny 42 5.5 40 4.3 92 92 NW 8 13 30.3 1026 10 16.0934 N/A
6:55 am 06:55 Sunny 42 5.8 40 4.6 92 92 NW 8 13 30.3 1026 10 16.0934 N/A
7:15 am 07:15 Sunny 44 6.4 41 5 91 91 NNW 7 11 30.3 1026 10 16.0934 N/A
7:35 am 07:35 Sunny 45 7.1 42 5.5 90 90 NNW 6 9 30.33 1027 10 16.0934 N/A
7:55 am 07:55 Partly Cloudy 46 7.7 42 5.6 87 87 N 12 19 30.33 1027 10 16.0934 N/A
8:15 am 08:15 Partly Cloudy 47 8.5 42 5.8 83 83 N 10 17 30.33 1027 10 16.0934 N/A
8:35 am 08:35 Partly Cloudy 49 9.4 43 6 80 80 N 13 20 30.33 1027 10 16.0934 N/A
8:55 am 08:55 Partly Cloudy 49 9.6 42 5.5 76 76 N 15 24 30.3 1026 10 16.0934 N/A
9:15 am 09:15 Sunny 50 10 41 5.2 72 72 NNW 18 30 30.3 1026 10 16.0934 N/A
9:35 am 09:35 Sunny 51 10.4 39 4.1 65 65 N 20 31 30.3 1026 10 16.0934 N/A
9:55 am 09:55 Sunny 51 10.8 40 4.4 65 65 N 17 28 30.3 1026 10 16.0934 N/A
10:15 am 10:15 Sunny 53 11.5 38 3.4 58 58 N 14 22 30.3 1026 10 16.0934 N/A
10:35 am 10:35 Sunny 53 11.7 37 2.9 55 55 N 15 24 30.3 1026 10 16.0934 N/A
10:55 am 10:55 Sunny 54 12.1 37 2.9 54 54 N 10 17 30.3 1026 10 16.0934 N/A
11:15 am 11:15 Sunny 55 12.7 38 3.2 53 53 N 12 19 30.27 1025 10 16.0934 N/A
11:35 am 11:35 Sunny 56 13.1 38 3.1 51 51 N 13 20 30.27 1025 10 16.0934 N/A
11:55 am 11:55 Sunny 56 13.6 37 3 49 49 N 14 22 30.27 1025 10 16.0934 N/A
12:15 pm 12:15 Sunny 57 14.1 38 3.1 48 48 N 12 19 30.24 1024 10 16.0934 N/A
12:35 pm 12:35 Sunny 58 14.4 38 3.6 49 49 NNE 10 17 30.24 1024 10 16.0934 N/A
12:55 pm 12:55 Sunny 59 14.8 38 3.6 47 47 NNE 12 19 30.24 1024 10 16.0934 N/A
1:15 pm 13:15 Sunny 60 15.6 40 4.3 47 47 NNE 12 19 30.21 1023 10 16.0934 N/A
1:35 pm 13:35 Sunny 60 15.6 39 4 46 46 N 12 19 30.21 1023 10 16.0934 N/A
1:55 pm 13:55 Sunny 61 16.2 38 3.1 42 42 NNE 8 13 30.21 1023 10 16.0934 N/A
2:15 pm 14:15 Sunny 61 16.3 39 3.8 44 44 ENE 8 13 30.21 1023 10 16.0934 N/A
2:35 pm 14:35 Sunny 62 16.7 38 3.3 41 41 NNE 9 15 30.18 1022 10 16.0934 N/A
2:55 pm 14:55 Sunny 63 17 37 2.8 39 39 NNE 5 7 30.18 1022 10 16.0934 N/A
3:15 pm 15:15 Sunny 64 17.6 39 3.7 40 40 NNW 5 7 30.18 1022 10 16.0934 N/A
3:35 pm 15:35 Sunny 64 17.7 39 3.8 40 40 NE 8 13 30.18 1022 10 16.0934 N/A
3:55 pm 15:55 Sunny 64 17.9 38 3.6 39 39 NNE 6 9 30.18 1022 10 16.0934 N/A
4:15 pm 16:15 Sunny 64 18 36 2.3 35 35 NNE 6 9 30.18 1022 10 16.0934 N/A
4:35 pm 16:35 Sunny 64 18 35 1.8 34 34 N 3 6 30.18 1022 10 16.0934 N/A
4:55 pm 16:55 Sunny 65 18.4 37 2.6 35 35 NE 8 13 30.18 1022 10 16.0934 N/A
5:15 pm 17:15 Sunny 65 18.2 36 2.3 35 35 NE 5 7 30.18 1022 10 16.0934 N/A
5:35 pm 17:35 Sunny 65 18.2 36 2.4 35 35 ENE 5 7 30.15 1021 10 16.0934 N/A
5:55 pm 17:55 Sunny 65 18.2 37 2.6 35 35 NE 5 7 30.15 1021 10 16.0934 N/A
6:15 pm 18:15 Sunny 65 18.2 38 3.1 37 37 NNE 6 9 30.15 1021 10 16.0934 N/A
6:35 pm 18:35 Sunny 64 18 37 2.7 36 36 N 6 9 30.15 1021 10 16.0934 N/A
6:55 pm 18:55 Sunny 64 17.8 35 1.9 35 35 NE 7 11 30.09 1019 10 16.0934 N/A
7:15 pm 19:15 Sunny 64 17.6 38 3.3 39 39 NE 7 11 30.15 1021 10 16.0934 N/A
7:35 pm 19:35 Sunny 63 17.1 41 5.1 45 45 ENE 6 9 30.15 1021 10 16.0934 N/A
7:55 pm 19:55 Sunny 61 16.3 41 4.9 47 47 NE 7 11 30.15 1021 10 16.0934 N/A
8:15 pm 20:15 Sunny 60 15.5 42 5.8 53 53 ENE 5 7 30.12 1020 10 16.0934 N/A
8:35 pm 20:35 Sunny 57 14.1 43 6.2 59 59 ENE 8 13 30.15 1021 10 16.0934 N/A
8:55 pm 20:55 Sunny 55 12.5 43 6.2 66 66 ENE 6 9 30.15 1021 10 16.0934 N/A
9:15 pm 21:15 Clear 53 11.7 42 5.5 66 66 E 7 11 30.15 1021 10 16.0934 N/A
9:35 pm 21:35 Clear 51 10.5 42 5.3 70 70 E 7 11 30.18 1022 10 16.0934 N/A
9:55 pm 21:55 Clear 51 10.5 42 5.3 70 70 E 6 9 30.18 1022 10 16.0934 N/A
10:15 pm 22:15 Clear 52 11 41 5.1 67 67 E 6 9 30.21 1023 10 16.0934 N/A
10:35 pm 22:35 Clear 49 9.3 41 4.8 74 74 E 7 11 30.21 1023 10 16.0934 N/A
10:55 pm 22:55 Clear 47 8.1 41 4.8 80 80 E 7 11 30.24 1024 10 16.0934 N/A
11:15 pm 23:15 Clear 48 8.9 41 5.2 78 78 E 6 9 30.21 1023 10 16.0934 N/A
11:35 pm 23:35 Clear 47 8.3 40 4.5 77 77 E 3 6 30.24 1024 10 16.0934 N/A
11:55 pm 23:55 Clear 48 9.1 41 4.9 75 75 N N/A 30.21 1023 10 16.0934 N/A

Powered by AerisWeather